Weather History for KART - May, 2013

Change the Weather History Date:

Thursday, May 23, 2013

  Actual Average Record
Temperature  
Mean Temperature 61 °F 57 °F  
Max Temperature 75 °F 68 °F 81 °F (1978)
Min Temperature 46 °F 46 °F 25 °F (1967)
Degree Days  
Heating Degree Days 4 9  
Month to date heating degree days 173 273  
Since 1 July heating degree days 6660 7416  
Cooling Degree Days 0 0  
Month to date cooling degree days 15 0  
Year to date cooling degree days 15 1  
Growing Degree Days 10 (Base 50)    
Moisture  
Dew Point 57 °F    
Average Humidity 76    
Maximum Humidity 87    
Minimum Humidity 64    
Precipitation  
Precipitation 0.22 in 0.11 in 0.88 in (1984)
Month to date precipitation 1.23 2.24  
Year to date precipitation 10.22 12.32  
Sea Level Pressure  
Sea Level Pressure 29.74 in    
Wind  
Wind Speed 9 mph (WSW)    
Max Wind Speed 17 mph    
Max Gust Speed 25 mph    
Visibility 10 miles    
Events Rain , Thunderstorm    
T = Trace of Precipitation, MM = Missing Value Source: NWS Daily Summary

Daily Weather History Graph

Daily Weather History Graph

Search for Another Location

Airport or City:

Trip Planner

Search our weather history database for the weather conditions in past years. The results will help you decide how hot, cold, wet, or windy it might be!

Date:

Astronomy

May. 23, 2013 Rise Set
Actual Time 5:30 AM EDT 8:32 PM EDT
Civil Twilight 4:55 AM EDT 9:06 PM EDT
Nautical Twilight 4:11 AM EDT 9:50 PM EDT
Astronomical Twilight 3:19 AM EDT 10:43 PM EDT
Moon 6:59 PM EDT 4:17 AM EDT
Length of Visible Light 16h 10m
Length of Day
15h 01m
Waxing Gibbous, 97% of the Moon is Illuminated
May 23
Waxing Gibbous
May 25
Full
May 31
Last Quarter
Jun 8
New
Jun 16
First Quarter

Hourly Weather History & Observations

Time (EDT) Temp. Windchill Dew Point Humidity Pressure Visibility Wind Dir Wind Speed Gust Speed Precip Events Conditions
12:56 AM 71.1 °F - 64.0 °F 78% 29.69 in 10.0 mi Variable 5.8 mph - N/A   Overcast
1:56 AM 70.0 °F - 64.0 °F 81% 29.68 in 10.0 mi SSE 4.6 mph - 0.00 in   Overcast
2:56 AM 71.1 °F - 60.1 °F 68% 29.66 in 10.0 mi South 6.9 mph - N/A   Scattered Clouds
3:56 AM 71.1 °F - 59.0 °F 66% 29.67 in 10.0 mi South 11.5 mph 18.4 mph 0.00 in   Partly Cloudy
4:56 AM 71.1 °F - 59.0 °F 66% 29.68 in 10.0 mi SSW 8.1 mph - 0.00 in Rain Light Rain
5:56 AM 68.0 °F - 61.0 °F 78% 29.70 in 10.0 mi SSW 9.2 mph - 0.00 in Rain Light Rain
6:56 AM 66.9 °F - 62.1 °F 84% 29.70 in 10.0 mi Calm Calm - 0.01 in Rain Light Rain
7:56 AM 69.1 °F - 63.0 °F 81% 29.70 in 10.0 mi SSW 6.9 mph - 0.00 in Rain Light Rain
8:56 AM 69.1 °F - 63.0 °F 81% 29.71 in 10.0 mi South 9.2 mph - 0.00 in Rain Light Rain
9:56 AM 68.0 °F - 64.0 °F 87% 29.71 in 10.0 mi SSW 9.2 mph - 0.03 in   Overcast
10:40 AM 69.8 °F - 64.4 °F 83% 29.73 in 10.0 mi South 9.2 mph - N/A   Overcast
10:56 AM 72.0 °F - 64.0 °F 76% 29.72 in 10.0 mi SSW 10.4 mph 18.4 mph N/A   Overcast
11:56 AM 73.0 °F - 63.0 °F 71% 29.72 in 10.0 mi WSW 12.7 mph 25.3 mph N/A   Mostly Cloudy
12:34 PM 69.8 °F - 62.6 °F 78% 29.73 in 10.0 mi SW 10.4 mph 18.4 mph 0.00 in Rain , Thunderstorm Light Rain
12:44 PM 69.8 °F - 62.6 °F 78% 29.73 in 10.0 mi SW 10.4 mph - 0.00 in Thunderstorm Overcast
12:56 PM 69.1 °F - 62.1 °F 78% 29.72 in 10.0 mi SW 9.2 mph - 0.00 in Thunderstorm Mostly Cloudy
1:10 PM 69.8 °F - 60.8 °F 73% 29.74 in 10.0 mi SW 12.7 mph 19.6 mph 0.00 in Rain Light Rain
1:56 PM 72.0 °F - 63.0 °F 73% 29.72 in 10.0 mi SW 10.4 mph - 0.01 in   Partly Cloudy
2:56 PM 72.0 °F - 61.0 °F 68% 29.70 in 10.0 mi SW 9.2 mph - N/A   Partly Cloudy
3:56 PM 72.0 °F - 62.1 °F 71% 29.70 in 10.0 mi West 8.1 mph - N/A   Scattered Clouds
4:56 PM 73.0 °F - 60.1 °F 64% 29.69 in 10.0 mi WSW 8.1 mph - N/A   Partly Cloudy
5:56 PM 70.0 °F - 57.9 °F 65% 29.70 in 10.0 mi WSW 9.2 mph - N/A   Mostly Cloudy
6:56 PM 64.0 °F - 57.0 °F 78% 29.72 in 10.0 mi NNW 11.5 mph - N/A   Overcast
7:13 PM 60.8 °F - 53.6 °F 77% 29.75 in 10.0 mi North 12.7 mph 20.7 mph N/A   Mostly Cloudy
7:41 PM 57.2 °F - 51.8 °F 82% 29.77 in 10.0 mi North 6.9 mph - N/A   Overcast
7:56 PM 57.0 °F - 51.1 °F 81% 29.77 in 10.0 mi North 12.7 mph - N/A   Overcast
8:07 PM 55.4 °F - 50.0 °F 82% 29.78 in 10.0 mi North 11.5 mph - N/A   Overcast
8:38 PM 53.6 °F - 48.2 °F 82% 29.79 in 10.0 mi North 11.5 mph - N/A   Overcast
8:56 PM 53.1 °F - 46.9 °F 80% 29.79 in 10.0 mi North 10.4 mph - N/A   Overcast
9:17 PM 51.8 °F - 48.2 °F 88% 29.81 in 10.0 mi North 11.5 mph - 0.01 in Rain Light Rain
9:56 PM 50.0 °F - 48.0 °F 93% 29.82 in 10.0 mi North 8.1 mph - 0.03 in Rain Light Rain
10:56 PM 48.9 °F - 46.0 °F 90% 29.82 in 10.0 mi North 11.5 mph 17.3 mph 0.00 in   Overcast
11:31 PM 48.2 °F - 44.6 °F 87% 29.84 in 10.0 mi NNE 11.5 mph - 0.01 in Rain Light Rain
11:54 PM 46.4 °F 42.4 °F 44.6 °F 93% 29.84 in 6.0 mi North 8.1 mph - 0.04 in Rain Rain
11:56 PM 46.9 °F - 45.0 °F 93% 29.83 in 6.0 mi North 12.7 mph 17.3 mph 0.04 in Rain Rain